Weather History for Kirksville, MO

Change the Weather History Date:

Saturday, February 8, 2014

  Actual Average Record
Temperature  
Mean Temperature 19 °F 28 °F  
Max Temperature 25 °F 37 °F 66 °F (1943)
Min Temperature 13 °F 19 °F -15 °F (1933)
Degree Days  
Heating Degree Days 46 37  
Month to date heating degree days 454 301  
Since 1 July heating degree days 4140 3848  
Cooling Degree Days 0 0  
Month to date cooling degree days 0 0  
Year to date cooling degree days 0 0  
Moisture  
Dew Point 13 °F    
Average Humidity 78    
Maximum Humidity 88    
Minimum Humidity 67    
Precipitation  
Precipitation T in 0.05 in 1.16 in (2001)
Month to date precipitation 0.81 0.43  
Year to date precipitation 1.67 1.70  
Sea Level Pressure  
Sea Level Pressure 30.19 in    
Wind  
Wind Speed 6 mph (South)    
Max Wind Speed 13 mph    
Max Gust Speed 16 mph    
Visibility 8 miles    
Events Snow    
T = Trace of Precipitation, MM = Missing Value Source: NWS Daily Summary

Daily Weather History Graph

Daily Weather History Graph

Search for Another Location

Airport:

Trip Planner

Search our weather history database for the weather conditions in past years. The results will help you decide how hot, cold, wet, or windy it might be!

Date:

Astronomy

Feb. 08, 2014 Rise Set
Actual Time 7:11 AM CST 5:37 PM CST
Civil Twilight 6:43 AM CST 6:05 PM CST
Nautical Twilight 6:11 AM CST 6:37 PM CST
Astronomical Twilight 5:39 AM CST 7:09 PM CST
Moon 12:32 PM CST (2/8) 2:24 AM CST (2/8)
Length of Visible Light 11h 22m
Length of Day
10h 26m
Waxing Gibbous, 69% of the Moon is Illuminated
Feb 8
Waxing Gibbous
Feb 14
Full
Feb 22
Last Quarter
Mar 1
New
Mar 8
First Quarter

Hourly Weather History & Observations

Time (CST) Temp. Windchill Dew Point Humidity Pressure Visibility Wind Dir Wind Speed Gust Speed Precip Events Conditions
12:55 AM 12.9 °F 5.2 °F 5.0 °F 71% 30.30 in 10.0 mi ESE 4.6 mph - N/A   Overcast
1:55 AM 12.9 °F 3.8 °F 5.0 °F 71% 30.29 in 10.0 mi SE 5.8 mph - N/A   Overcast
2:55 AM 12.9 °F 3.8 °F 6.1 °F 74% 30.27 in 10.0 mi SE 5.8 mph - N/A   Overcast
3:11 AM 12.9 °F 5.2 °F 6.1 °F 74% 30.20 in 10.0 mi SE 4.6 mph - N/A   Overcast
3:36 AM 12.9 °F 2.6 °F 7.0 °F 77% 30.19 in 10.0 mi SE 6.9 mph - N/A   Overcast
3:55 AM 12.9 °F 2.6 °F 7.0 °F 77% 30.25 in 10.0 mi ESE 6.9 mph - N/A   Overcast
4:08 AM 12.9 °F 2.6 °F 7.0 °F 77% 30.19 in 10.0 mi SE 6.9 mph - N/A   Overcast
4:16 AM 12.9 °F 2.6 °F 7.0 °F 77% 30.19 in 10.0 mi SE 6.9 mph - N/A   Overcast
4:55 AM 12.9 °F 3.8 °F 9.0 °F 84% 30.25 in 10.0 mi SE 5.8 mph - N/A   Overcast
5:55 AM 12.9 °F 0.7 °F 9.0 °F 84% 30.22 in 10.0 mi SE 9.2 mph - N/A   Overcast
6:55 AM 14.0 °F 5.1 °F 10.0 °F 84% 30.24 in 10.0 mi South 5.8 mph - N/A   Overcast
7:55 AM 14.0 °F 3.9 °F 10.9 °F 88% 30.24 in 9.0 mi SSE 6.9 mph - N/A   Overcast
8:55 AM 15.1 °F 1.8 °F 10.9 °F 84% 30.18 in 9.0 mi SSE 11.5 mph - N/A   Overcast
9:55 AM 19.0 °F 8.2 °F 12.9 °F 77% 30.18 in 10.0 mi South 9.2 mph - N/A   Overcast
10:11 AM 18.0 °F 7.7 °F 12.0 °F 78% 30.13 in 2.5 mi SSW 8.1 mph - 0.00 in Snow Light Snow
10:19 AM 19.0 °F 10.0 °F 12.9 °F 77% 30.15 in 4.0 mi SW 6.9 mph - 0.00 in Snow Light Snow
10:29 AM 19.0 °F 12.3 °F 12.9 °F 77% 30.15 in 6.0 mi SW 4.6 mph - 0.00 in Snow Light Snow
10:55 AM 19.9 °F 13.4 °F 14.0 °F 78% 30.22 in 10.0 mi WSW 4.6 mph - 0.00 in   Overcast
11:55 AM 19.9 °F 12.1 °F 14.0 °F 78% 30.20 in 10.0 mi Variable 5.8 mph - N/A   Overcast
12:55 PM 21.9 °F 15.7 °F 15.1 °F 75% 30.17 in 9.0 mi Variable 4.6 mph - N/A   Overcast
1:55 PM 23.0 °F 15.8 °F 16.0 °F 74% 30.14 in 9.0 mi SW 5.8 mph - N/A   Overcast
2:55 PM 25.0 °F 14.8 °F 17.1 °F 72% 30.13 in 7.0 mi SW 10.4 mph - N/A   Overcast
3:55 PM 25.0 °F 18.1 °F 18.0 °F 75% 30.13 in 7.0 mi SSW 5.8 mph - N/A   Overcast
4:55 PM 25.0 °F 19.3 °F 18.0 °F 75% 30.15 in 7.0 mi WSW 4.6 mph - N/A   Overcast
5:55 PM 25.0 °F 19.3 °F 18.0 °F 75% 30.16 in 8.0 mi WSW 4.6 mph - N/A   Overcast
6:55 PM 25.0 °F - 19.0 °F 78% 30.16 in 8.0 mi Calm Calm - N/A   Overcast
7:55 PM 25.0 °F - 19.0 °F 78% 30.17 in 7.0 mi Calm Calm - N/A   Overcast
8:55 PM 25.0 °F - 19.0 °F 78% 30.18 in 7.0 mi Calm Calm - N/A   Overcast
9:47 PM 24.1 °F 16.0 °F 18.0 °F 77% 30.13 in 6.0 mi North 6.9 mph - N/A   Haze
9:55 PM 24.1 °F 16.0 °F 18.0 °F 77% 30.19 in 6.0 mi North 6.9 mph - N/A   Haze
10:55 PM 23.0 °F 15.8 °F 18.0 °F 81% 30.21 in 6.0 mi NNW 5.8 mph - N/A   Haze
11:55 PM 23.0 °F - 17.1 °F 78% 30.19 in 5.0 mi Calm Calm - N/A   Haze